Colorado Springs, CO

8:27 AM MDT on June 24, 2017 (GMT -0600)
City Of Colorado Springs Municipal

Weather History for KCOS - March, 2012

Change the Weather History Date:

Tuesday, March 20, 2012

  Actual Average Record
Temperature  
Mean Temperature 38 °F 40 °F  
Max Temperature 49 °F 53 °F 76 °F (2017)
Min Temperature 26 °F 27 °F -2 °F (1965)
Degree Days  
Heating Degree Days 27 25  
Month to date heating degree days 412 546  
Since 1 July heating degree days 4633 5109  
Cooling Degree Days 0 0  
Month to date cooling degree days 0 0  
Year to date cooling degree days 0 0  
Moisture  
Dew Point 10 °F    
Average Humidity 37    
Maximum Humidity 58    
Minimum Humidity 15    
Precipitation  
Precipitation 0.00 in 0.03 in 0.73 in (1979)
Month to date precipitation 0.06 0.61  
Year to date precipitation 0.37 1.27  
Snow  
Snow 0.00 in 0.30 in 6.00 in (1979)
Month to date snowfall 0.7 5.1  
Since 1 July snowfall 21.7 29.1  
Snow Depth 0.00 in    
Sea Level Pressure  
Sea Level Pressure 29.90 in    
Wind  
Wind Speed 18 mph (North)    
Max Wind Speed 36 mph    
Max Gust Speed 46 mph    
Visibility 10 miles    
Events      
T = Trace of Precipitation, MM = Missing Value Source: NWS Daily Summary

Daily Weather History Graph

Daily Weather History Graph

Search for Another Location

Airport or City:

Trip Planner

Search our weather history database for the weather conditions in past years. The results will help you decide how hot, cold, wet, or windy it might be!

Date:

Astronomy

Mar. 20, 2012 Rise Set
Actual Time 7:01 AM MDT 7:11 PM MDT
Civil Twilight 6:34 AM MDT 7:37 PM MDT
Nautical Twilight 6:03 AM MDT 8:09 PM MDT
Astronomical Twilight 5:32 AM MDT 8:40 PM MDT
Moon 5:44 AM MDT (3/20) 5:42 PM MDT (3/20)
Length of Visible Light 13h 03m
Length of Day
12h 09m
Waning Crescent, 3% of the Moon is Illuminated
Mar 20
Waning Crescent
Mar 22
New
Mar 30
First Quarter
Apr 6
Full
Apr 13
Last Quarter

Hourly Weather History & Observations

Time (MDT) Temp. Windchill Dew Point Humidity Pressure Visibility Wind Dir Wind Speed Gust Speed Precip Events Conditions
12:54 AM 35.1 °F 24.1 °F 12.9 °F 40% 29.62 in 10.0 mi NW 19.6 mph 26.5 mph N/A   Partly Cloudy
1:54 AM 35.1 °F 24.8 °F 10.9 °F 37% 29.65 in 10.0 mi North 17.3 mph 23.0 mph N/A   Mostly Cloudy
2:54 AM 32.0 °F 19.2 °F 10.0 °F 40% 29.68 in 10.0 mi North 23.0 mph 31.1 mph N/A   Mostly Cloudy
3:54 AM 32.0 °F 20.5 °F 10.9 °F 42% 29.70 in 10.0 mi North 18.4 mph - N/A   Overcast
4:54 AM 30.9 °F 19.1 °F 12.9 °F 47% 29.75 in 10.0 mi North 18.4 mph 26.5 mph N/A   Mostly Cloudy
5:54 AM 30.9 °F 18.1 °F 12.9 °F 47% 29.82 in 10.0 mi North 21.9 mph 29.9 mph N/A   Mostly Cloudy
6:54 AM 28.4 °F 15.4 °F 14.0 °F 55% 29.85 in 10.0 mi NNW 19.6 mph 24.2 mph N/A   Mostly Cloudy
7:54 AM 28.9 °F 15.8 °F 15.1 °F 56% 29.92 in 10.0 mi NNW 20.7 mph 32.2 mph N/A   Mostly Cloudy
8:54 AM 30.9 °F 17.2 °F 17.1 °F 57% 29.96 in 10.0 mi NNW 25.3 mph 33.4 mph N/A   Mostly Cloudy
9:54 AM 34.0 °F 21.0 °F 16.0 °F 48% 29.96 in 10.0 mi North 26.5 mph 41.4 mph N/A   Scattered Clouds
10:54 AM 36.0 °F 23.0 °F 14.0 °F 41% 29.99 in 10.0 mi North 29.9 mph 43.7 mph N/A   Mostly Cloudy
11:54 AM 41.0 °F 30.9 °F 14.0 °F 33% 29.96 in 10.0 mi NNW 24.2 mph 35.7 mph N/A   Mostly Cloudy
12:54 PM 43.0 °F 33.5 °F 12.9 °F 30% 29.94 in 10.0 mi NNW 24.2 mph 34.5 mph N/A   Scattered Clouds
1:54 PM 46.0 °F 37.8 °F 10.0 °F 23% 29.90 in 10.0 mi North 23.0 mph 31.1 mph N/A   Scattered Clouds
2:54 PM 46.0 °F 37.6 °F 8.1 °F 21% 29.90 in 10.0 mi NNW 24.2 mph 31.1 mph N/A   Scattered Clouds
3:54 PM 48.0 °F - 7.0 °F 19% 29.88 in 10.0 mi NNE 15.0 mph 31.1 mph N/A   Scattered Clouds
4:54 PM 46.9 °F - 5.0 °F 18% 29.91 in 10.0 mi NNW 18.4 mph 27.6 mph N/A   Scattered Clouds
5:54 PM 46.0 °F 39.6 °F 1.0 °F 16% 29.93 in 10.0 mi North 15.0 mph - N/A   Scattered Clouds
6:54 PM 42.1 °F 34.9 °F 5.0 °F 22% 29.98 in 10.0 mi NE 13.8 mph - N/A   Scattered Clouds
7:54 PM 34.0 °F 25.5 °F 6.1 °F 31% 30.04 in 10.0 mi NNE 11.5 mph - N/A   Partly Cloudy
8:54 PM 32.0 °F 23.6 °F 6.1 °F 34% 30.06 in 10.0 mi North 10.4 mph - N/A   Clear
9:54 PM 33.1 °F 30.0 °F 8.1 °F 35% 30.06 in 10.0 mi North 3.5 mph - N/A   Clear
10:54 PM 30.0 °F 23.2 °F 8.1 °F 40% 30.09 in 10.0 mi North 6.9 mph - N/A   Clear
11:54 PM 27.0 °F 18.7 °F 8.1 °F 45% 30.08 in 10.0 mi NNE 8.1 mph - N/A   Clear